Track STARLINK-3136 now! 10-day predictions STARLINK-3136 is classified as:
1 49443U 21104AM 22148.75914058 .00000587 00000-0 54992-4 0 9991 2 49443 53.2202 288.3581 0002337 33.6670 326.4470 15.08850458 31515